Terug naar catalogus

STARLINK-33711

ActiefCommunicatieVLEO
NORAD 63404·PAYLOAD·🇺🇸 United States

Gelanceerd Mar 31, 2025 vanaf Cape Canaveral Space Force Station

Loading…

Volgende Passages (komende 24 uur)

TLE

VersSource: CelesTrak SupGP

Epoch: Sep 15, 2026, 03:23 UTC

1 63404C 25065F   26258.14145833  .00039426  00000+0  14275-2 0  2589
2 63404  42.9993 116.7256 0001474 272.1444 286.9431 15.27569978    16

Volg STARLINK-33711 in realtime met AllMySat

Download on the App Store